Location: Cuzcurrita-R�o Tir�n
(42.5415°N, 2.9642°W)
Time: 00:20:36
(UTC+00:00)

Cosmos 1689 Rocket - Pass Details

Date: 17 January 2021
Orbit: 352 x 366 km, 97.5° (Epoch: 08 March)

Event Time Altitude Azimuth Distance (km) Brightness Sun altitude
Exits shadow 18:25:54 33° 94° (E) 636 2.6 -14.4°
Maximum altitude 18:25:59 33° 98° (E) 635 2.6 -14.4°
Drops below altitude 10° 18:28:35 10° 165° (SSE) 1,330 4.8 -14.9°
Sets 18:30:36 0° 176° (S) 2,165 6.0 -15.3°
